QPF
0.07 0.08 0.09 0.08 0.11 0.13 0.16 0.17 0.15 0.12 0.09 0.09 0.09 0.08 0.09 0.12 0.15 0.14 0.12 0.16 0.22 0.19 0.13 0.11 0.08 0.07 0.07 0.07 0.09 0.11 0.11 0.12 0.14 0.12 0.11 0.09 0.08 0.08
0.05 0.06 0.06 0.06 0.07 0.09 0.10 0.11 0.11 0.12 0.11 0.08 0.05 0.05 0.06 0.07 0.08 0.08 0.08 0.10 0.11 0.11 0.11 0.10 0.09 0.09 0.10 0.10 0.09 0.07 0.07 0.09 0.09 0.08 0.08 0.08 0.06 0.06
0.06 0.06 0.06 0.06 0.05 0.04 0.05 0.08 0.10 0.12 0.11 0.09 0.07 0.05 0.05 0.07 0.08 0.08 0.09 0.09 0.09 0.10 0.10 0.12 0.13 0.12 0.11 0.09 0.08 0.08 0.08 0.07 0.06 0.06 0.07 0.08 0.07 0.07
0.06 0.06 0.06 0.06 0.05 0.05 0.06 0.06 0.07 0.07 0.08 0.08 0.08 0.08 0.07 0.07 0.07 0.09 0.10 0.10 0.08 0.08 0.08 0.10 0.10 0.10 0.10 0.08 0.07 0.06 0.06 0.05 0.05 0.05 0.06 0.06 0.06 0.07
0.07 0.08 0.07 0.06 0.05 0.05 0.06 0.06 0.06 0.09 0.09 0.09 0.09 0.08 0.06 0.06 0.07 0.10 0.10 0.09 0.08 0.09 0.09 0.10 0.10 0.08 0.07 0.05 0.06 0.05 0.05 0.06 0.06 0.06 0.05 0.05 0.05 0.05
0.06 0.06 0.06 0.05 0.05 0.05 0.05 0.06 0.07 0.07 0.08 0.08 0.08 0.07 0.06 0.07 0.10 0.12 0.15 0.18 0.18 0.15 0.12 0.10 0.08 0.07 0.07 0.06 0.06 0.06 0.06 0.06 0.05 0.05 0.04 0.03 0.03 0.04
0.05 0.06 0.07 0.07 0.06 0.05 0.03 0.03 0.03 0.04 0.05 0.05 0.05 0.05 0.04 0.05 0.06 0.08 0.10 0.11 0.11 0.11 0.09 0.06 0.06 0.05 0.05 0.05 0.04 0.04 0.04 0.03 0.03 0.03 0.03 0.03 0.02 0.02
0.04 0.04 0.04 0.05 0.04 0.03 0.02 0.02 0.02 0.01 0.01 0.02 0.03 0.04 0.04 0.05 0.05 0.05 0.06 0.06 0.06 0.06 0.07 0.05 0.05 0.04 0.02 0.02 0.03 0.03 0.04 0.03 0.02 0.02 0.02 0.02 0.02 0.02
0.03 0.03 0.03 0.02 0.03 0.03 0.03 0.03 0.02 0.01 0.01 0.02 0.02 0.02 0.04 0.06 0.07 0.07 0.06 0.06 0.06 0.06 0.07 0.06 0.05 0.05 0.04 0.03 0.03 0.03 0.04 0.04 0.04 0.03 0.03 0.02 0.02 0.02
0.02 0.02 0.02 0.01 0.01 0.02 0.02 0.02 0.02 0.01 0.02 0.02 0.01 0.02 0.03 0.03 0.05 0.06 0.07 0.07 0.06 0.05 0.04 0.04 0.04 0.05 0.05 0.05 0.06 0.06 0.05 0.04 0.03 0.03 0.03 0.03 0.02 0.02
0.01 0.02 0.03 0.02 0.01 0.02 0.01 0.01 0.01 0.01 0.02 0.02 0.02 0.03 0.03 0.03 0.03 0.04 0.06 0.09 0.10 0.10 0.09 0.09 0.09 0.09 0.09 0.10 0.10 0.09 0.07 0.05 0.03 0.02 0.02 0.02 0.01 0.02
0.01 0.02 0.02 0.03 0.03 0.03 0.02 0.01 0.01 0.01 0.02 0.02 0.03 0.04 0.04 0.05 0.05 0.04 0.06 0.09 0.10 0.11 0.12 0.11 0.09 0.06 0.05 0.05 0.06 0.06 0.05 0.04 0.03 0.01 0.01 0.01 0.01 0.01
0.03 0.03 0.03 0.02 0.02 0.03 0.03 0.02 0.01 0.01 0.01 0.02 0.02 0.03 0.03 0.03 0.03 0.04 0.04 0.04 0.04 0.03 0.03 0.02 0.02 0.02 0.02 0.02 0.02 0.03 0.03 0.03 0.02 0.02 0.01 0.01 0.01 0.01
0.03 0.03 0.02 0.01 0.01 0.01 0.02 0.02 0.02 0.01 0.01 0.02 0.02 0.02 0.02 0.02 0.02 0.02 0.02 0.03 0.03 0.03 0.04 0.03 0.03 0.03 0.03 0.02 0.02 0.02 0.02 0.02 0.02 0.02 0.01 0.02 0.01 0.01
0.02 0.01 0.01 0.01 0.01 0.01 0.01 0.01 0.01 0.02 0.03 0.03 0.03 0.02 0.02 0.02 0.02 0.02 0.01 0.01 0.01 0.02 0.02 0.02 0.03 0.04 0.04 0.04 0.03 0.03 0.02 0.02 0.01 0.01 0.01 0.01 0.01 0.01
0.01 0.01 0.01 0.01 0.00 0.00 0.00 0.01 0.02 0.02 0.03 0.03 0.02 0.02 0.02 0.03 0.02 0.01 0.01 0.01 0.01 0.01 0.02 0.02 0.02 0.03 0.03 0.03 0.02 0.02 0.01 0.01 0.01 0.01 0.01 0.01 0.01 0.01
0.01 0.01 0.00 0.00 0.00 0.00 0.01 0.01 0.01 0.02 0.02 0.01 0.01 0.01 0.01 0.02 0.02 0.02 0.02 0.02 0.02 0.02 0.02 0.02 0.03 0.03 0.04 0.04 0.03 0.02 0.01 0.01 0.01 0.01 0.01 0.01 0.01 0.01
0.01 0.01 0.01 0.00 0.00 0.01 0.01 0.01 0.01 0.01 0.01 0.01 0.01 0.00 0.01 0.01 0.02 0.02 0.02 0.02 0.02 0.02 0.02 0.02 0.03 0.04 0.04 0.04 0.03 0.03 0.03 0.02 0.02 0.01 0.01 0.01 0.01 0.01
0.01 0.01 0.01 0.01 0.00 0.00 0.00 0.00 0.01 0.01 0.01 0.01 0.01 0.01 0.01 0.01 0.02 0.03 0.03 0.03 0.03 0.02 0.02 0.03 0.03 0.04 0.04 0.04 0.04 0.05 0.05 0.06 0.05 0.04 0.04 0.03 0.02 0.01
0.01 0.01 0.01 0.00 0.00 0.00 0.00 0.00 0.01 0.01 0.01 0.01 0.01 0.01 0.01 0.01 0.01 0.01 0.02 0.02 0.02 0.02 0.02 0.02 0.03 0.04 0.05 0.05 0.06 0.06 0.06 0.06 0.06 0.06 0.04 0.03 0.03 0.02
0.01 0.01 0.00 0.00 0.00 0.00 0.01 0.01 0.02 0.01 0.01 0.01 0.01 0.02 0.01 0.01 0.01 0.02 0.02 0.02 0.02 0.02 0.01 0.01 0.02 0.02 0.02 0.03 0.04 0.04 0.04 0.04 0.04 0.04 0.03 0.03 0.03 0.02
0.01 0.01 0.01 0.01 0.01 0.01 0.01 0.01 0.01 0.01 0.02 0.02 0.01 0.01 0.01 0.01 0.01 0.01 0.02 0.03 0.03 0.02 0.02 0.02 0.02 0.02 0.03 0.03 0.03 0.03 0.03 0.03 0.03 0.02 0.02 0.02 0.02 0.02
0.02 0.01 0.01 0.01 0.00 0.00 0.00 0.01 0.01 0.01 0.01 0.01 0.01 0.01 0.00 0.00 0.01 0.01 0.02 0.03 0.04 0.03 0.02 0.02 0.02 0.03 0.03 0.03 0.03 0.03 0.03 0.03 0.03 0.03 0.02 0.02 0.02 0.01
MSLP
1013.91 1013.87 1013.86 1013.86 1013.82 1013.73 1013.56 1013.33 1013.05 1012.75 1012.46 1012.23 1012.08 1012.02 1012.05 1012.15 1012.30 1012.46 1012.62 1012.77 1012.89 1012.99 1013.06 1013.10 1013.13 1013.12 1013.08 1012.98 1012.83 1012.63 1012.38 1012.09 1011.80 1011.52 1011.28 1011.10 1010.99 1010.94
1013.92 1013.80 1013.71 1013.64 1013.54 1013.41 1013.22 1012.99 1012.72 1012.44 1012.18 1011.97 1011.84 1011.80 1011.84 1011.94 1012.10 1012.28 1012.46 1012.63 1012.78 1012.91 1013.02 1013.10 1013.15 1013.17 1013.15 1013.07 1012.93 1012.74 1012.49 1012.22 1011.94 1011.68 1011.46 1011.30 1011.20 1011.16
1014.13 1013.95 1013.80 1013.65 1013.49 1013.31 1013.09 1012.83 1012.55 1012.26 1012.01 1011.80 1011.66 1011.61 1011.64 1011.73 1011.88 1012.05 1012.23 1012.42 1012.59 1012.75 1012.90 1013.02 1013.12 1013.18 1013.19 1013.15 1013.04 1012.88 1012.67 1012.43 1012.18 1011.95 1011.76 1011.63 1011.55 1011.54
1014.52 1014.30 1014.09 1013.89 1013.67 1013.44 1013.18 1012.88 1012.57 1012.26 1011.98 1011.75 1011.58 1011.49 1011.48 1011.54 1011.64 1011.79 1011.96 1012.14 1012.32 1012.51 1012.69 1012.86 1013.00 1013.11 1013.18 1013.19 1013.13 1013.02 1012.86 1012.66 1012.46 1012.28 1012.13 1012.04 1011.99 1011.99
1015.00 1014.76 1014.53 1014.29 1014.04 1013.76 1013.46 1013.13 1012.78 1012.43 1012.10 1011.82 1011.60 1011.45 1011.37 1011.35 1011.40 1011.49 1011.62 1011.78 1011.96 1012.17 1012.38 1012.59 1012.79 1012.96 1013.09 1013.16 1013.17 1013.12 1013.01 1012.88 1012.73 1012.60 1012.50 1012.44 1012.43 1012.45
1015.50 1015.26 1015.02 1014.77 1014.49 1014.19 1013.86 1013.49 1013.10 1012.71 1012.33 1011.98 1011.69 1011.45 1011.28 1011.18 1011.13 1011.15 1011.22 1011.34 1011.50 1011.71 1011.94 1012.20 1012.46 1012.69 1012.89 1013.04 1013.12 1013.14 1013.10 1013.03 1012.94 1012.86 1012.80 1012.78 1012.81 1012.86
1015.93 1015.71 1015.48 1015.22 1014.95 1014.63 1014.28 1013.89 1013.47 1013.04 1012.60 1012.19 1011.81 1011.47 1011.20 1010.98 1010.84 1010.76 1010.75 1010.81 1010.94 1011.14 1011.38 1011.67 1011.98 1012.29 1012.56 1012.79 1012.95 1013.05 1013.09 1013.08 1013.05 1013.02 1013.01 1013.04 1013.09 1013.17
1016.25 1016.04 1015.82 1015.58 1015.31 1015.00 1014.65 1014.25 1013.81 1013.34 1012.86 1012.38 1011.91 1011.48 1011.10 1010.77 1010.50 1010.32 1010.21 1010.20 1010.28 1010.45 1010.70 1011.02 1011.37 1011.74 1012.09 1012.40 1012.65 1012.84 1012.95 1013.02 1013.06 1013.08 1013.12 1013.19 1013.28 1013.39
1016.43 1016.24 1016.03 1015.80 1015.55 1015.25 1014.90 1014.51 1014.06 1013.58 1013.06 1012.52 1011.98 1011.46 1010.97 1010.53 1010.14 1009.84 1009.63 1009.53 1009.55 1009.68 1009.92 1010.24 1010.64 1011.06 1011.49 1011.89 1012.23 1012.50 1012.71 1012.86 1012.96 1013.05 1013.14 1013.26 1013.39 1013.54
1016.50 1016.31 1016.10 1015.89 1015.64 1015.37 1015.04 1014.65 1014.21 1013.72 1013.18 1012.61 1012.01 1011.41 1010.83 1010.28 1009.78 1009.36 1009.04 1008.84 1008.77 1008.85 1009.06 1009.38 1009.80 1010.27 1010.77 1011.25 1011.69 1012.06 1012.36 1012.60 1012.79 1012.96 1013.11 1013.28 1013.46 1013.66
1016.51 1016.30 1016.10 1015.88 1015.65 1015.38 1015.07 1014.70 1014.27 1013.78 1013.24 1012.64 1012.01 1011.35 1010.68 1010.04 1009.43 1008.90 1008.46 1008.16 1008.00 1008.00 1008.16 1008.47 1008.89 1009.40 1009.96 1010.52 1011.06 1011.53 1011.94 1012.28 1012.57 1012.82 1013.05 1013.28 1013.52 1013.77
1016.51 1016.28 1016.07 1015.85 1015.62 1015.36 1015.06 1014.70 1014.28 1013.80 1013.25 1012.64 1011.98 1011.27 1010.55 1009.82 1009.12 1008.47 1007.93 1007.51 1007.25 1007.16 1007.26 1007.53 1007.95 1008.48 1009.09 1009.73 1010.35 1010.94 1011.46 1011.92 1012.31 1012.66 1012.97 1013.27 1013.57 1013.88
1016.54 1016.30 1016.07 1015.84 1015.60 1015.34 1015.03 1014.68 1014.26 1013.78 1013.24 1012.62 1011.94 1011.20 1010.42 1009.62 1008.83 1008.09 1007.43 1006.90 1006.53 1006.35 1006.37 1006.59 1006.98 1007.52 1008.17 1008.87 1009.59 1010.28 1010.92 1011.49 1012.00 1012.45 1012.86 1013.24 1013.60 1013.97
1016.60 1016.36 1016.12 1015.87 1015.62 1015.34 1015.02 1014.65 1014.23 1013.75 1013.20 1012.57 1011.87 1011.10 1010.28 1009.42 1008.55 1007.72 1006.96 1006.32 1005.84 1005.56 1005.50 1005.65 1006.01 1006.55 1007.22 1007.98 1008.78 1009.56 1010.31 1011.00 1011.62 1012.17 1012.67 1013.13 1013.57 1013.99
1016.68 1016.44 1016.19 1015.94 1015.66 1015.35 1015.01 1014.62 1014.18 1013.68 1013.12 1012.48 1011.76 1010.97 1010.11 1009.20 1008.26 1007.34 1006.49 1005.75 1005.17 1004.79 1004.64 1004.73 1005.05 1005.57 1006.25 1007.05 1007.91 1008.79 1009.63 1010.42 1011.14 1011.80 1012.38 1012.92 1013.42 1013.89
1016.73 1016.51 1016.26 1015.99 1015.69 1015.35 1014.97 1014.55 1014.08 1013.56 1012.98 1012.32 1011.58 1010.76 1009.87 1008.92 1007.93 1006.94 1006.01 1005.17 1004.50 1004.04 1003.81 1003.83 1004.10 1004.60 1005.28 1006.11 1007.02 1007.96 1008.88 1009.76 1010.57 1011.30 1011.96 1012.56 1013.11 1013.63
1016.70 1016.49 1016.25 1015.97 1015.65 1015.28 1014.86 1014.41 1013.91 1013.36 1012.74 1012.07 1011.31 1010.47 1009.55 1008.56 1007.53 1006.49 1005.49 1004.58 1003.84 1003.30 1003.00 1002.97 1003.20 1003.67 1004.35 1005.19 1006.13 1007.12 1008.10 1009.03 1009.90 1010.69 1011.40 1012.04 1012.63 1013.18
1016.52 1016.34 1016.11 1015.83 1015.49 1015.09 1014.65 1014.16 1013.63 1013.05 1012.42 1011.72 1010.95 1010.09 1009.14 1008.13 1007.06 1005.98 1004.94 1003.99 1003.19 1002.60 1002.25 1002.17 1002.37 1002.82 1003.49 1004.33 1005.29 1006.30 1007.31 1008.28 1009.18 1010.01 1010.74 1011.41 1012.02 1012.58
1016.20 1016.04 1015.82 1015.53 1015.18 1014.77 1014.31 1013.80 1013.25 1012.66 1012.01 1011.29 1010.51 1009.63 1008.67 1007.64 1006.55 1005.45 1004.38 1003.40 1002.57 1001.95 1001.57 1001.47 1001.64 1002.08 1002.74 1003.59 1004.55 1005.57 1006.59 1007.57 1008.48 1009.31 1010.05 1010.71 1011.32 1011.89
1015.72 1015.58 1015.37 1015.09 1014.74 1014.33 1013.86 1013.35 1012.80 1012.19 1011.54 1010.82 1010.02 1009.14 1008.17 1007.13 1006.03 1004.91 1003.83 1002.84 1002.00 1001.37 1000.98 1000.87 1001.04 1001.48 1002.14 1002.98 1003.94 1004.95 1005.97 1006.94 1007.84 1008.66 1009.39 1010.04 1010.63 1011.19
1015.12 1014.99 1014.79 1014.52 1014.19 1013.79 1013.34 1012.84 1012.29 1011.70 1011.05 1010.34 1009.54 1008.66 1007.68 1006.63 1005.52 1004.40 1003.32 1002.32 1001.49 1000.87 1000.49 1000.39 1000.57 1001.01 1001.68 1002.52 1003.47 1004.48 1005.48 1006.44 1007.32 1008.11 1008.81 1009.43 1010.00 1010.54
1014.43 1014.31 1014.12 1013.87 1013.55 1013.18 1012.76 1012.29 1011.78 1011.22 1010.59 1009.89 1009.09 1008.21 1007.23 1006.17 1005.06 1003.94 1002.86 1001.88 1001.06 1000.45 1000.09 1000.02 1000.21 1000.66 1001.34 1002.18 1003.13 1004.13 1005.12 1006.05 1006.91 1007.67 1008.34 1008.94 1009.48 1010.00
1013.69 1013.57 1013.39 1013.16 1012.87 1012.54 1012.17 1011.75 1011.28 1010.76 1010.16 1009.48 1008.70 1007.82 1006.84 1005.78 1004.66 1003.54 1002.46 1001.49 1000.69 1000.10 999.77 999.72 999.93 1000.40 1001.09 1001.93 1002.88 1003.86 1004.84 1005.75 1006.58 1007.32 1007.97 1008.54 1009.07 1009.57
Thickness
5733 5731 5729 5728 5727 5725 5722 5718 5711 5705 5704 5707 5708 5711 5710 5709 5708 5707 5705 5704 5702 5700 5699 5697 5696 5694 5692 5691 5689 5688 5687 5686 5684 5683 5681 5679 5678 5677
5729 5727 5725 5724 5723 5721 5719 5716 5712 5706 5701 5703 5704 5705 5705 5704 5702 5701 5699 5698 5696 5694 5692 5690 5688 5686 5684 5683 5681 5680 5679 5677 5675 5674 5672 5671 5669 5668
5724 5722 5720 5719 5717 5716 5714 5711 5708 5705 5699 5698 5700 5700 5698 5697 5695 5694 5692 5690 5688 5686 5684 5682 5680 5678 5676 5675 5673 5671 5670 5668 5666 5665 5663 5662 5660 5658
5718 5717 5715 5714 5712 5710 5708 5706 5703 5701 5697 5693 5692 5692 5691 5690 5688 5686 5684 5682 5680 5677 5675 5673 5671 5669 5668 5666 5665 5663 5661 5659 5657 5655 5654 5652 5650 5648
5714 5711 5709 5708 5706 5704 5702 5700 5698 5697 5694 5690 5687 5685 5683 5682 5679 5677 5675 5673 5671 5668 5666 5664 5662 5661 5659 5657 5655 5654 5651 5649 5647 5645 5643 5640 5638 5636
5709 5707 5705 5703 5700 5698 5697 5694 5692 5690 5687 5684 5681 5678 5675 5674 5671 5668 5665 5664 5662 5660 5658 5656 5653 5652 5650 5648 5646 5644 5642 5639 5637 5634 5631 5629 5627 5625
5703 5701 5700 5698 5696 5693 5691 5688 5686 5683 5680 5676 5673 5670 5667 5665 5663 5661 5658 5656 5654 5652 5649 5647 5644 5642 5640 5638 5636 5634 5632 5629 5626 5623 5620 5618 5615 5613
5696 5695 5693 5691 5689 5687 5685 5683 5681 5677 5673 5670 5666 5663 5661 5659 5658 5656 5652 5648 5645 5644 5641 5638 5636 5634 5632 5629 5627 5625 5622 5619 5616 5613 5610 5607 5604 5601
5690 5688 5686 5684 5681 5679 5677 5676 5674 5672 5670 5665 5661 5659 5656 5655 5652 5649 5646 5643 5640 5638 5634 5630 5628 5625 5624 5621 5619 5616 5613 5609 5606 5603 5599 5596 5593 5590
5685 5683 5679 5676 5675 5672 5670 5668 5666 5664 5663 5660 5658 5655 5653 5651 5648 5645 5641 5637 5634 5631 5629 5623 5620 5618 5617 5614 5611 5608 5604 5600 5597 5593 5589 5586 5583 5580
5678 5676 5673 5670 5668 5666 5663 5660 5658 5656 5656 5654 5652 5650 5647 5645 5642 5637 5632 5628 5624 5622 5620 5616 5612 5609 5607 5605 5602 5599 5595 5592 5588 5584 5580 5577 5574 5570
5671 5669 5667 5664 5662 5659 5656 5652 5649 5648 5647 5646 5644 5642 5639 5637 5634 5631 5626 5621 5616 5613 5612 5608 5604 5599 5596 5595 5593 5590 5586 5582 5579 5575 5571 5568 5565 5561
5664 5662 5660 5658 5656 5653 5650 5646 5644 5642 5640 5637 5635 5632 5630 5628 5625 5623 5620 5616 5610 5607 5605 5601 5596 5591 5587 5584 5582 5581 5577 5574 5570 5566 5563 5560 5557 5553
5658 5656 5654 5653 5650 5647 5644 5641 5639 5635 5631 5627 5624 5622 5620 5618 5616 5614 5612 5609 5606 5603 5600 5595 5590 5585 5579 5574 5572 5571 5569 5566 5562 5558 5555 5552 5549 5546
5653 5650 5648 5645 5643 5640 5638 5635 5631 5627 5623 5619 5615 5613 5612 5610 5608 5605 5602 5600 5597 5595 5592 5588 5584 5579 5574 5569 5565 5562 5559 5557 5555 5551 5548 5545 5542 5538
5646 5643 5640 5637 5635 5632 5629 5626 5623 5620 5616 5612 5609 5606 5604 5602 5598 5595 5591 5588 5585 5583 5582 5579 5576 5572 5566 5563 5558 5554 5552 5549 5547 5544 5541 5538 5535 5532
5638 5634 5630 5627 5624 5622 5619 5616 5614 5611 5608 5605 5601 5598 5595 5592 5589 5586 5583 5578 5574 5572 5569 5568 5566 5563 5560 5555 5550 5547 5544 5541 5540 5537 5533 5530 5528 5526
5632 5627 5622 5620 5617 5614 5611 5608 5605 5602 5600 5597 5593 5590 5587 5584 5580 5577 5574 5569 5565 5562 5560 5558 5555 5551 5548 5546 5545 5541 5537 5535 5532 5530 5526 5522 5520 5520
5625 5620 5616 5613 5610 5607 5604 5601 5598 5595 5592 5588 5585 5582 5579 5575 5572 5568 5564 5560 5557 5554 5551 5548 5545 5542 5537 5535 5536 5535 5531 5528 5525 5522 5519 5516 5514 5514
5617 5614 5610 5607 5604 5600 5597 5594 5591 5587 5584 5580 5577 5574 5570 5566 5563 5559 5556 5552 5548 5545 5542 5540 5537 5534 5531 5529 5527 5526 5526 5522 5518 5515 5512 5510 5508 5508
5611 5607 5604 5601 5597 5594 5590 5587 5583 5579 5576 5572 5569 5566 5562 5558 5554 5551 5548 5545 5541 5538 5535 5533 5532 5530 5526 5522 5518 5517 5517 5516 5514 5510 5507 5503 5500 5498
5606 5602 5598 5594 5591 5587 5583 5580 5576 5572 5569 5565 5562 5558 5555 5551 5547 5544 5540 5537 5534 5531 5528 5526 5524 5521 5517 5513 5510 5508 5507 5507 5506 5504 5502 5499 5495 5493
5600 5596 5591 5588 5585 5581 5577 5573 5569 5565 5562 5559 5555 5552 5548 5545 5541 5538 5534 5531 5527 5524 5521 5517 5515 5512 5509 5506 5503 5501 5500 5498 5496 5495 5494 5494 5492 5491